contact:dominique.lefevre@mio.osupytheas.fr, maurice.libes@osupytheas.fr, didier.mallarino@osupytheas.fr
Project:EMSO http://www.emso-fr.org/EMSO-France
Depth: 2436.0 m
Title:EMSO Ligure Ouest : Data MII capteur MICROCAT
DateTime_Computer,Latitude,Longitude,Temperature,Conductivity,Pressure,DateTime_Instrument
DateTime_Computer,Latitude,Longitude,degC,S m-1,dbar,DateTime_Instrument
2017-11-25T00:01:33Z,42.805,6.029,13.2952,4.59997,2472.069,2017-11-25T02:03:01Z
2017-11-25T00:04:36Z,42.805,6.029,13.2964,4.59970,2472.077,2017-11-25T02:06:04Z
2017-11-25T00:07:39Z,42.805,6.029,13.2979,4.59997,2472.077,2017-11-25T02:09:07Z
2017-11-25T00:10:42Z,42.805,6.029,13.2958,4.59976,2472.092,2017-11-25T02:12:10Z
2017-11-25T00:13:45Z,42.805,6.029,13.2952,4.59995,2472.092,2017-11-25T02:15:13Z
2017-11-25T00:16:47Z,42.805,6.029,13.2954,4.60010,2472.077,2017-11-25T02:18:16Z
2017-11-25T00:19:50Z,42.805,6.029,13.2945,4.59996,2472.092,2017-11-25T02:21:18Z
2017-11-25T00:22:53Z,42.805,6.029,13.2963,4.60012,2472.077,2017-11-25T02:24:21Z
2017-11-25T00:25:56Z,42.805,6.029,13.2968,4.59991,2472.055,2017-11-25T02:27:24Z
2017-11-25T00:28:59Z,42.805,6.029,13.2951,4.60006,2472.1,2017-11-25T02:30:27Z
2017-11-25T00:32:02Z,42.805,6.029,13.2962,4.60008,2472.092,2017-11-25T02:33:30Z
2017-11-25T00:35:05Z,42.805,6.029,13.2991,4.60001,2472.055,2017-11-25T02:36:33Z
2017-11-25T00:38:08Z,42.805,6.029,13.2974,4.60030,2472.069,2017-11-25T02:39:36Z
2017-11-25T00:41:11Z,42.805,6.029,13.2980,4.60064,2472.069,2017-11-25T02:42:39Z
2017-11-25T00:44:13Z,42.805,6.029,13.2980,4.60032,2472.077,2017-11-25T02:45:42Z
2017-11-25T00:47:16Z,42.805,6.029,13.2981,4.60040,2472.092,2017-11-25T02:48:45Z
2017-11-25T00:50:19Z,42.805,6.029,13.2975,4.60005,2472.069,2017-11-25T02:51:47Z
2017-11-25T00:53:22Z,42.805,6.029,13.2974,4.60050,2472.055,2017-11-25T02:54:50Z
2017-11-25T00:56:25Z,42.805,6.029,13.2982,4.59998,2472.092,2017-11-25T02:57:53Z
2017-11-25T00:59:28Z,42.805,6.029,13.2990,4.60031,2472.055,2017-11-25T03:00:56Z
2017-11-25T01:02:31Z,42.805,6.029,13.2992,4.60044,2472.069,2017-11-25T03:03:59Z
2017-11-25T01:05:34Z,42.805,6.029,13.2979,4.60002,2472.092,2017-11-25T03:07:02Z
2017-11-25T01:08:37Z,42.805,6.029,13.2978,4.60040,2472.092,2017-11-25T03:10:05Z
2017-11-25T01:11:39Z,42.805,6.029,13.2987,4.60040,2472.055,2017-11-25T03:13:08Z
2017-11-25T01:14:42Z,42.805,6.029,13.2955,4.60006,2472.069,2017-11-25T03:16:10Z
2017-11-25T01:17:45Z,42.805,6.029,13.2977,4.60018,2472.092,2017-11-25T03:19:13Z
2017-11-25T01:20:48Z,42.805,6.029,13.2963,4.60040,2472.069,2017-11-25T03:22:16Z
2017-11-25T01:23:51Z,42.805,6.029,13.2958,4.60045,2472.092,2017-11-25T03:25:19Z
2017-11-25T01:26:54Z,42.805,6.029,13.2973,4.60026,2472.055,2017-11-25T03:28:22Z
2017-11-25T01:29:57Z,42.805,6.029,13.2966,4.60012,2472.115,2017-11-25T03:31:25Z
2017-11-25T01:33:00Z,42.805,6.029,13.2965,4.59997,2472.047,2017-11-25T03:34:28Z
2017-11-25T01:36:03Z,42.805,6.029,13.2954,4.60001,2472.092,2017-11-25T03:37:31Z
2017-11-25T01:39:05Z,42.805,6.029,13.2954,4.60031,2472.092,2017-11-25T03:40:34Z
2017-11-25T01:42:08Z,42.805,6.029,13.2968,4.60021,2472.069,2017-11-25T03:43:37Z
2017-11-25T01:45:11Z,42.805,6.029,13.2985,4.60028,2472.047,2017-11-25T03:46:39Z
2017-11-25T01:48:14Z,42.805,6.029,13.2978,4.60026,2472.032,2017-11-25T03:49:42Z
2017-11-25T01:51:17Z,42.805,6.029,13.2966,4.60050,2472.047,2017-11-25T03:52:45Z
2017-11-25T01:54:20Z,42.805,6.029,13.2969,4.60028,2472.069,2017-11-25T03:55:48Z
2017-11-25T01:57:23Z,42.805,6.029,13.2970,4.59982,2472.077,2017-11-25T03:58:51Z
2017-11-25T02:00:26Z,42.805,6.029,13.2961,4.60023,2472.047,2017-11-25T04:01:54Z
2017-11-25T02:03:29Z,42.805,6.029,13.2961,4.60042,2472.092,2017-11-25T04:04:57Z
2017-11-25T02:06:31Z,42.805,6.029,13.2973,4.60041,2472.069,2017-11-25T04:08:00Z
2017-11-25T02:09:34Z,42.805,6.029,13.2973,4.60001,2472.069,2017-11-25T04:11:03Z
2017-11-25T02:12:37Z,42.805,6.029,13.2972,4.60061,2472.092,2017-11-25T04:14:05Z
2017-11-25T02:15:40Z,42.805,6.029,13.2956,4.60013,2472.069,2017-11-25T04:17:08Z
2017-11-25T02:18:43Z,42.805,6.029,13.2979,4.60052,2472.069,2017-11-25T04:20:11Z
2017-11-25T02:21:46Z,42.805,6.029,13.2944,4.60018,2472.032,2017-11-25T04:23:14Z
2017-11-25T02:24:49Z,42.805,6.029,13.2954,4.60009,2472.069,2017-11-25T04:26:17Z
2017-11-25T02:27:52Z,42.805,6.029,13.2973,4.60012,2472.055,2017-11-25T04:29:20Z
2017-11-25T02:30:55Z,42.805,6.029,13.2982,4.60039,2472.069,2017-11-25T04:32:23Z
2017-11-25T02:33:58Z,42.805,6.029,13.2969,4.60019,2472.047,2017-11-25T04:35:26Z
2017-11-25T02:37:00Z,42.805,6.029,13.2964,4.60032,2472.055,2017-11-25T04:38:29Z
2017-11-25T02:40:03Z,42.805,6.029,13.2986,4.60044,2472.069,2017-11-25T04:41:32Z
2017-11-25T02:43:06Z,42.805,6.029,13.2970,4.60032,2472.055,2017-11-25T04:44:34Z
2017-11-25T02:46:09Z,42.805,6.029,13.2970,4.60020,2472.047,2017-11-25T04:47:37Z
2017-11-25T02:49:12Z,42.805,6.029,13.2960,4.60039,2472.032,2017-11-25T04:50:40Z
2017-11-25T02:52:15Z,42.805,6.029,13.2949,4.60030,2472.024,2017-11-25T04:53:43Z
2017-11-25T02:55:18Z,42.805,6.029,13.2975,4.60034,2472.032,2017-11-25T04:56:46Z
2017-11-25T02:58:21Z,42.805,6.029,13.2979,4.60016,2472.069,2017-11-25T04:59:49Z
2017-11-25T03:01:24Z,42.805,6.029,13.2969,4.60033,2472.032,2017-11-25T05:02:52Z
2017-11-25T03:04:26Z,42.805,6.029,13.2975,4.60023,2472.032,2017-11-25T05:05:55Z
2017-11-25T03:07:29Z,42.805,6.029,13.2978,4.60028,2472.047,2017-11-25T05:08:58Z
2017-11-25T03:10:32Z,42.805,6.029,13.2986,4.60031,2472.047,2017-11-25T05:12:00Z
2017-11-25T03:13:35Z,42.805,6.029,13.2974,4.60039,2472.024,2017-11-25T05:15:03Z
2017-11-25T03:16:38Z,42.805,6.029,13.2987,4.60011,2472.032,2017-11-25T05:18:06Z
2017-11-25T03:19:41Z,42.805,6.029,13.2982,4.60001,2472.047,2017-11-25T05:21:09Z
2017-11-25T03:22:44Z,42.805,6.029,13.2970,4.60025,2472.069,2017-11-25T05:24:12Z
2017-11-25T03:25:47Z,42.805,6.029,13.2974,4.60011,2472.032,2017-11-25T05:27:15Z
2017-11-25T03:28:50Z,42.805,6.029,13.2968,4.60020,2472.024,2017-11-25T05:30:18Z
2017-11-25T03:31:52Z,42.805,6.029,13.2979,4.60025,2472.024,2017-11-25T05:33:21Z
2017-11-25T03:34:55Z,42.805,6.029,13.2968,4.60035,2472.069,2017-11-25T05:36:24Z
2017-11-25T03:37:58Z,42.805,6.029,13.2975,4.60008,2472.032,2017-11-25T05:39:26Z
2017-11-25T03:41:01Z,42.805,6.029,13.2968,4.60000,2472.024,2017-11-25T05:42:29Z
2017-11-25T03:44:04Z,42.805,6.029,13.2964,4.60020,2472.047,2017-11-25T05:45:32Z
2017-11-25T03:47:07Z,42.805,6.029,13.2956,4.60032,2472.047,2017-11-25T05:48:35Z
2017-11-25T03:50:10Z,42.805,6.029,13.2974,4.59998,2472.032,2017-11-25T05:51:38Z
2017-11-25T03:53:13Z,42.805,6.029,13.2975,4.60035,2472.024,2017-11-25T05:54:41Z
2017-11-25T03:56:16Z,42.805,6.029,13.2967,4.60023,2472.032,2017-11-25T05:57:44Z
2017-11-25T03:59:19Z,42.805,6.029,13.2979,4.60022,2472.032,2017-11-25T06:00:47Z
2017-11-25T04:02:21Z,42.805,6.029,13.2973,4.60012,2472.024,2017-11-25T06:03:50Z
2017-11-25T04:05:24Z,42.805,6.029,13.2970,4.60038,2472.01,2017-11-25T06:06:52Z
2017-11-25T04:08:27Z,42.805,6.029,13.2980,4.60035,2472.024,2017-11-25T06:09:55Z
2017-11-25T04:11:30Z,42.805,6.029,13.2972,4.59995,2472.055,2017-11-25T06:12:58Z
2017-11-25T04:14:33Z,42.805,6.029,13.2950,4.59993,2472.032,2017-11-25T06:16:01Z
2017-11-25T04:17:36Z,42.805,6.029,13.2954,4.60004,2472.047,2017-11-25T06:19:04Z
2017-11-25T04:20:39Z,42.805,6.029,13.2966,4.60018,2472.032,2017-11-25T06:22:07Z
2017-11-25T04:23:42Z,42.805,6.029,13.2973,4.60021,2472.024,2017-11-25T06:25:10Z
2017-11-25T04:26:45Z,42.805,6.029,13.2970,4.60006,2472.047,2017-11-25T06:28:13Z
2017-11-25T04:29:47Z,42.805,6.029,13.2985,4.60016,2472.047,2017-11-25T06:31:16Z
2017-11-25T04:32:50Z,42.805,6.029,13.2973,4.60000,2472.092,2017-11-25T06:34:18Z
2017-11-25T04:35:53Z,42.805,6.029,13.2951,4.60020,2472.032,2017-11-25T06:37:21Z
2017-11-25T04:38:56Z,42.805,6.029,13.2975,4.60015,2472.055,2017-11-25T06:40:24Z
2017-11-25T04:41:59Z,42.805,6.029,13.2976,4.60033,2472.069,2017-11-25T06:43:27Z
2017-11-25T04:45:02Z,42.805,6.029,13.2977,4.60034,2472.032,2017-11-25T06:46:30Z
2017-11-25T04:48:05Z,42.805,6.029,13.2964,4.60031,2472.024,2017-11-25T06:49:33Z
2017-11-25T04:51:08Z,42.805,6.029,13.2963,4.60019,2472.032,2017-11-25T06:52:36Z
2017-11-25T04:54:11Z,42.805,6.029,13.2965,4.60008,2472.047,2017-11-25T06:55:39Z
2017-11-25T04:57:13Z,42.805,6.029,13.2974,4.60015,2472.024,2017-11-25T06:58:42Z
2017-11-25T05:00:16Z,42.805,6.029,13.2966,4.60018,2472.069,2017-11-25T07:01:45Z
2017-11-25T05:03:19Z,42.805,6.029,13.2954,4.60034,2472.047,2017-11-25T07:04:47Z
2017-11-25T05:06:22Z,42.805,6.029,13.2960,4.60022,2472.069,2017-11-25T07:07:50Z
2017-11-25T05:09:25Z,42.805,6.029,13.2970,4.60009,2472.032,2017-11-25T07:10:53Z
2017-11-25T05:12:28Z,42.805,6.029,13.2973,4.60010,2472.032,2017-11-25T07:13:56Z
2017-11-25T05:15:31Z,42.805,6.029,13.2969,4.60022,2472.032,2017-11-25T07:16:59Z
2017-11-25T05:18:34Z,42.805,6.029,13.2978,4.60019,2472.069,2017-11-25T07:20:02Z
2017-11-25T05:21:37Z,42.805,6.029,13.2972,4.60018,2472.024,2017-11-25T07:23:05Z
2017-11-25T05:24:39Z,42.805,6.029,13.2966,4.60019,2472.024,2017-11-25T07:26:08Z
2017-11-25T05:27:42Z,42.805,6.029,13.2961,4.59988,2472.01,2017-11-25T07:29:11Z
2017-11-25T05:30:45Z,42.805,6.029,13.2970,4.60006,2472.032,2017-11-25T07:32:13Z
2017-11-25T05:33:48Z,42.805,6.029,13.2968,4.60011,2472.047,2017-11-25T07:35:16Z
2017-11-25T05:36:51Z,42.805,6.029,13.2978,4.60021,2472.047,2017-11-25T07:38:19Z
2017-11-25T05:39:54Z,42.805,6.029,13.2953,4.60011,2472.047,2017-11-25T07:41:22Z
2017-11-25T05:42:57Z,42.805,6.029,13.2968,4.60014,2472.047,2017-11-25T07:44:25Z
2017-11-25T05:46:00Z,42.805,6.029,13.2958,4.60005,2472.055,2017-11-25T07:47:28Z
2017-11-25T05:49:03Z,42.805,6.029,13.2970,4.60011,2472.024,2017-11-25T07:50:31Z
2017-11-25T05:52:06Z,42.805,6.029,13.2979,4.60012,2472.069,2017-11-25T07:53:34Z
2017-11-25T05:55:08Z,42.805,6.029,13.2976,4.60011,2472.047,2017-11-25T07:56:37Z
2017-11-25T05:58:11Z,42.805,6.029,13.2973,4.60024,2472.055,2017-11-25T07:59:40Z
2017-11-25T06:01:14Z,42.805,6.029,13.2976,4.60006,2472.047,2017-11-25T08:02:42Z
2017-11-25T06:04:17Z,42.805,6.029,13.2976,4.60003,2472.047,2017-11-25T08:05:45Z
2017-11-25T06:07:20Z,42.805,6.029,13.2966,4.59998,2472.047,2017-11-25T08:08:48Z
2017-11-25T06:10:23Z,42.805,6.029,13.2970,4.60022,2472.047,2017-11-25T08:11:51Z
2017-11-25T06:13:26Z,42.805,6.029,13.2968,4.59983,2472.01,2017-11-25T08:14:54Z
2017-11-25T06:16:29Z,42.805,6.029,13.2951,4.60002,2472.047,2017-11-25T08:17:57Z
2017-11-25T06:19:32Z,42.805,6.029,13.2957,4.60017,2472.032,2017-11-25T08:21:00Z
2017-11-25T06:22:34Z,42.805,6.029,13.2951,4.60000,2472.024,2017-11-25T08:24:03Z
2017-11-25T06:25:37Z,42.805,6.029,13.2977,4.59990,2472.047,2017-11-25T08:27:06Z
2017-11-25T06:28:40Z,42.805,6.029,13.2962,4.60035,2472.055,2017-11-25T08:30:08Z
2017-11-25T06:31:43Z,42.805,6.029,13.2978,4.60012,2472.069,2017-11-25T08:33:11Z
2017-11-25T06:34:46Z,42.805,6.029,13.2973,4.60026,2472.032,2017-11-25T08:36:14Z
2017-11-25T06:37:49Z,42.805,6.029,13.2978,4.60020,2472.032,2017-11-25T08:39:17Z
2017-11-25T06:40:52Z,42.805,6.029,13.2964,4.60014,2472.024,2017-11-25T08:42:20Z
2017-11-25T06:43:55Z,42.805,6.029,13.2961,4.60027,2472.069,2017-11-25T08:45:23Z
2017-11-25T06:46:58Z,42.805,6.029,13.2973,4.59987,2472.069,2017-11-25T08:48:26Z
2017-11-25T06:50:00Z,42.805,6.029,13.2977,4.59992,2472.077,2017-11-25T08:51:29Z
2017-11-25T06:53:03Z,42.805,6.029,13.2954,4.59988,2472.069,2017-11-25T08:54:32Z
2017-11-25T06:56:06Z,42.805,6.029,13.2961,4.60004,2472.032,2017-11-25T08:57:34Z
2017-11-25T06:59:09Z,42.805,6.029,13.2962,4.59986,2472.092,2017-11-25T09:00:37Z
2017-11-25T07:02:12Z,42.805,6.029,13.2957,4.59998,2472.077,2017-11-25T09:03:40Z
2017-11-25T07:05:15Z,42.805,6.029,13.2972,4.59985,2472.069,2017-11-25T09:06:43Z
2017-11-25T07:08:18Z,42.805,6.029,13.2971,4.60003,2472.069,2017-11-25T09:09:46Z
2017-11-25T07:11:21Z,42.805,6.029,13.2966,4.60000,2472.032,2017-11-25T09:12:49Z
2017-11-25T07:14:24Z,42.805,6.029,13.2964,4.59987,2472.092,2017-11-25T09:15:52Z
2017-11-25T07:17:27Z,42.805,6.029,13.2954,4.60000,2472.092,2017-11-25T09:18:55Z
2017-11-25T07:20:29Z,42.805,6.029,13.2961,4.60000,2472.077,2017-11-25T09:21:58Z
2017-11-25T07:23:32Z,42.805,6.029,13.2963,4.59973,2472.069,2017-11-25T09:25:00Z
2017-11-25T07:26:35Z,42.805,6.029,13.2950,4.60001,2472.055,2017-11-25T09:28:03Z
2017-11-25T07:29:38Z,42.805,6.029,13.2948,4.59993,2472.077,2017-11-25T09:31:06Z
2017-11-25T07:32:41Z,42.805,6.029,13.2957,4.59997,2472.077,2017-11-25T09:34:09Z
2017-11-25T07:35:44Z,42.805,6.029,13.2961,4.59984,2472.1,2017-11-25T09:37:12Z
2017-11-25T07:38:47Z,42.805,6.029,13.2951,4.59964,2472.092,2017-11-25T09:40:15Z
2017-11-25T07:41:50Z,42.805,6.029,13.2948,4.59977,2472.092,2017-11-25T09:43:18Z
2017-11-25T07:44:53Z,42.805,6.029,13.2953,4.59979,2472.077,2017-11-25T09:46:21Z
2017-11-25T07:47:55Z,42.805,6.029,13.2952,4.59964,2472.115,2017-11-25T09:49:24Z
2017-11-25T07:50:58Z,42.805,6.029,13.2948,4.59974,2472.092,2017-11-25T09:52:26Z
2017-11-25T07:54:01Z,42.805,6.029,13.2952,4.59983,2472.092,2017-11-25T09:55:29Z
2017-11-25T07:57:04Z,42.805,6.029,13.2954,4.59980,2472.115,2017-11-25T09:58:32Z
2017-11-25T08:00:07Z,42.805,6.029,13.2954,4.59993,2472.115,2017-11-25T10:01:35Z
2017-11-25T08:03:10Z,42.805,6.029,13.2959,4.59982,2472.077,2017-11-25T10:04:38Z
2017-11-25T08:06:13Z,42.805,6.029,13.3008,4.59975,2472.123,2017-11-25T10:07:41Z
2017-11-25T08:09:16Z,42.805,6.029,13.2950,4.59980,2472.115,2017-11-25T10:10:44Z
2017-11-25T08:12:19Z,42.805,6.029,13.2941,4.59970,2472.137,2017-11-25T10:13:47Z
2017-11-25T08:15:21Z,42.805,6.029,13.2946,4.59982,2472.123,2017-11-25T10:16:50Z
2017-11-25T08:18:24Z,42.805,6.029,13.2972,4.59975,2472.137,2017-11-25T10:19:53Z
2017-11-25T08:21:27Z,42.805,6.029,13.2947,4.59989,2472.115,2017-11-25T10:22:55Z
2017-11-25T08:24:30Z,42.805,6.029,13.2954,4.59998,2472.137,2017-11-25T10:25:58Z
2017-11-25T08:27:33Z,42.805,6.029,13.2949,4.59987,2472.137,2017-11-25T10:29:01Z
2017-11-25T08:30:36Z,42.805,6.029,13.2946,4.59975,2472.137,2017-11-25T10:32:04Z
2017-11-25T08:33:39Z,42.805,6.029,13.2957,4.59998,2472.123,2017-11-25T10:35:07Z
2017-11-25T08:36:42Z,42.805,6.029,13.2969,4.59978,2472.115,2017-11-25T10:38:10Z
2017-11-25T08:39:45Z,42.805,6.029,13.2957,4.59983,2472.123,2017-11-25T10:41:13Z
2017-11-25T08:42:48Z,42.805,6.029,13.2952,4.59974,2472.16,2017-11-25T10:44:16Z
2017-11-25T08:45:50Z,42.805,6.029,13.2950,4.59983,2472.115,2017-11-25T10:47:19Z
2017-11-25T08:48:53Z,42.805,6.029,13.2951,4.59990,2472.175,2017-11-25T10:50:22Z
2017-11-25T08:51:56Z,42.805,6.029,13.2954,4.59969,2472.137,2017-11-25T10:53:24Z
2017-11-25T08:54:59Z,42.805,6.029,13.2951,4.59974,2472.182,2017-11-25T10:56:27Z
2017-11-25T08:58:02Z,42.805,6.029,13.2951,4.59995,2472.145,2017-11-25T10:59:30Z
2017-11-25T09:01:05Z,42.805,6.029,13.2954,4.59992,2472.145,2017-11-25T11:02:33Z
2017-11-25T09:04:08Z,42.805,6.029,13.2954,4.59989,2472.16,2017-11-25T11:05:36Z
2017-11-25T09:07:11Z,42.805,6.029,13.2943,4.59981,2472.16,2017-11-25T11:08:39Z
2017-11-25T09:10:14Z,42.805,6.029,13.2952,4.59973,2472.16,2017-11-25T11:11:42Z
2017-11-25T09:13:17Z,42.805,6.029,13.2961,4.59973,2472.182,2017-11-25T11:14:45Z
2017-11-25T09:16:19Z,42.805,6.029,13.2944,4.59987,2472.168,2017-11-25T11:17:48Z
2017-11-25T09:19:22Z,42.805,6.029,13.2946,4.60021,2472.168,2017-11-25T11:20:51Z
2017-11-25T09:22:25Z,42.805,6.029,13.2948,4.59975,2472.182,2017-11-25T11:23:53Z
2017-11-25T09:25:28Z,42.805,6.029,13.2952,4.59984,2472.145,2017-11-25T11:26:56Z
2017-11-25T09:28:31Z,42.805,6.029,13.2954,4.59981,2472.16,2017-11-25T11:29:59Z
2017-11-25T09:31:34Z,42.805,6.029,13.2958,4.59998,2472.16,2017-11-25T11:33:02Z
2017-11-25T09:34:37Z,42.805,6.029,13.2958,4.59992,2472.182,2017-11-25T11:36:05Z
2017-11-25T09:37:40Z,42.805,6.029,13.2954,4.59990,2472.168,2017-11-25T11:39:08Z
2017-11-25T09:40:43Z,42.805,6.029,13.2975,4.59987,2472.182,2017-11-25T11:42:11Z
2017-11-25T09:43:45Z,42.805,6.029,13.2947,4.59983,2472.205,2017-11-25T11:45:14Z
2017-11-25T09:46:48Z,42.805,6.029,13.2947,4.59969,2472.182,2017-11-25T11:48:17Z
2017-11-25T09:49:51Z,42.805,6.029,13.2953,4.59984,2472.205,2017-11-25T11:51:19Z
2017-11-25T09:52:54Z,42.805,6.029,13.2947,4.60003,2472.182,2017-11-25T11:54:22Z
2017-11-25T09:55:57Z,42.805,6.029,13.2961,4.59988,2472.19,2017-11-25T11:57:25Z
2017-11-25T09:59:00Z,42.805,6.029,13.2962,4.59999,2472.182,2017-11-25T12:00:28Z
2017-11-25T10:02:03Z,42.805,6.029,13.2951,4.60007,2472.205,2017-11-25T12:03:31Z
2017-11-25T10:05:06Z,42.805,6.029,13.2957,4.59978,2472.19,2017-11-25T12:06:34Z
2017-11-25T10:08:09Z,42.805,6.029,13.2956,4.59989,2472.19,2017-11-25T12:09:37Z
2017-11-25T10:11:12Z,42.805,6.029,13.2958,4.59990,2472.182,2017-11-25T12:12:40Z
2017-11-25T10:14:14Z,42.805,6.029,13.2964,4.59983,2472.205,2017-11-25T12:15:43Z
2017-11-25T10:17:17Z,42.805,6.029,13.2965,4.59989,2472.205,2017-11-25T12:18:46Z
2017-11-25T10:20:20Z,42.805,6.029,13.2990,4.59969,2472.205,2017-11-25T12:21:48Z
2017-11-25T10:23:23Z,42.805,6.029,13.2955,4.59981,2472.19,2017-11-25T12:24:51Z
2017-11-25T10:26:26Z,42.805,6.029,13.2958,4.59990,2472.205,2017-11-25T12:27:54Z
2017-11-25T10:29:29Z,42.805,6.029,13.2959,4.59992,2472.205,2017-11-25T12:30:57Z
2017-11-25T10:32:32Z,42.805,6.029,13.2963,4.59980,2472.205,2017-11-25T12:34:00Z
2017-11-25T10:35:35Z,42.805,6.029,13.2961,4.59981,2472.213,2017-11-25T12:37:03Z
2017-11-25T10:38:38Z,42.805,6.029,13.2952,4.59994,2472.19,2017-11-25T12:40:06Z
2017-11-25T10:41:40Z,42.805,6.029,13.2961,4.59979,2472.227,2017-11-25T12:43:09Z
2017-11-25T10:44:43Z,42.805,6.029,13.2958,4.59993,2472.182,2017-11-25T12:46:12Z
2017-11-25T10:47:46Z,42.805,6.029,13.2966,4.60008,2472.213,2017-11-25T12:49:14Z
2017-11-25T10:50:49Z,42.805,6.029,13.2961,4.60002,2472.236,2017-11-25T12:52:17Z
2017-11-25T10:53:52Z,42.805,6.029,13.2985,4.60006,2472.19,2017-11-25T12:55:20Z
2017-11-25T10:56:55Z,42.805,6.029,13.2964,4.59987,2472.182,2017-11-25T12:58:23Z
2017-11-25T10:59:58Z,42.805,6.029,13.2958,4.59998,2472.19,2017-11-25T13:01:26Z
2017-11-25T11:03:01Z,42.805,6.029,13.2959,4.60002,2472.205,2017-11-25T13:04:29Z
2017-11-25T11:06:04Z,42.805,6.029,13.2987,4.59972,2472.213,2017-11-25T13:07:32Z
2017-11-25T11:09:07Z,42.805,6.029,13.2951,4.59987,2472.205,2017-11-25T13:10:35Z
2017-11-25T11:12:09Z,42.805,6.029,13.2970,4.59984,2472.19,2017-11-25T13:13:38Z
2017-11-25T11:15:12Z,42.805,6.029,13.3002,4.59984,2472.19,2017-11-25T13:16:41Z
2017-11-25T11:18:15Z,42.805,6.029,13.2950,4.59990,2472.227,2017-11-25T13:19:43Z
2017-11-25T11:21:18Z,42.805,6.029,13.2971,4.59994,2472.19,2017-11-25T13:22:46Z
2017-11-25T11:24:21Z,42.805,6.029,13.2968,4.59999,2472.205,2017-11-25T13:25:49Z
2017-11-25T11:27:24Z,42.805,6.029,13.2957,4.59978,2472.19,2017-11-25T13:28:52Z
2017-11-25T11:30:27Z,42.805,6.029,13.2962,4.59985,2472.205,2017-11-25T13:31:55Z
2017-11-25T11:33:30Z,42.805,6.029,13.2978,4.60010,2472.168,2017-11-25T13:34:58Z
2017-11-25T11:36:33Z,42.805,6.029,13.2985,4.59983,2472.19,2017-11-25T13:38:01Z
2017-11-25T11:39:36Z,42.805,6.029,13.2979,4.59994,2472.205,2017-11-25T13:41:04Z
2017-11-25T11:42:38Z,42.805,6.029,13.2964,4.59993,2472.145,2017-11-25T13:44:07Z
2017-11-25T11:45:41Z,42.805,6.029,13.2977,4.59992,2472.19,2017-11-25T13:47:10Z
2017-11-25T11:48:44Z,42.805,6.029,13.2982,4.60012,2472.227,2017-11-25T13:50:12Z
2017-11-25T11:51:47Z,42.805,6.029,13.2948,4.59981,2472.205,2017-11-25T13:53:15Z
2017-11-25T11:54:50Z,42.805,6.029,13.2950,4.59987,2472.168,2017-11-25T13:56:18Z
2017-11-25T11:57:53Z,42.805,6.029,13.2954,4.59993,2472.168,2017-11-25T13:59:21Z
2017-11-25T12:00:56Z,42.805,6.029,13.2954,4.59978,2472.205,2017-11-25T14:02:24Z
2017-11-25T12:03:59Z,42.805,6.029,13.2948,4.59992,2472.19,2017-11-25T14:05:27Z
2017-11-25T12:07:02Z,42.805,6.029,13.2964,4.59995,2472.205,2017-11-25T14:08:30Z
2017-11-25T12:10:05Z,42.805,6.029,13.2977,4.59975,2472.205,2017-11-25T14:11:33Z
2017-11-25T12:13:07Z,42.805,6.029,13.2972,4.60006,2472.182,2017-11-25T14:14:36Z
2017-11-25T12:16:10Z,42.805,6.029,13.2954,4.60019,2472.205,2017-11-25T14:17:38Z
2017-11-25T12:19:13Z,42.805,6.029,13.2966,4.60035,2472.205,2017-11-25T14:20:41Z
2017-11-25T12:22:16Z,42.805,6.029,13.2972,4.60001,2472.205,2017-11-25T14:23:44Z
2017-11-25T12:25:19Z,42.805,6.029,13.2981,4.60012,2472.227,2017-11-25T14:26:47Z
2017-11-25T12:28:22Z,42.805,6.029,13.3002,4.59990,2472.182,2017-11-25T14:29:50Z
2017-11-25T12:31:25Z,42.805,6.029,13.2960,4.60013,2472.19,2017-11-25T14:32:53Z
2017-11-25T12:34:28Z,42.805,6.029,13.2982,4.60025,2472.205,2017-11-25T14:35:56Z
2017-11-25T12:37:31Z,42.805,6.029,13.2994,4.60015,2472.182,2017-11-25T14:38:59Z
2017-11-25T12:40:33Z,42.805,6.029,13.2983,4.60016,2472.227,2017-11-25T14:42:02Z
2017-11-25T12:43:36Z,42.805,6.029,13.2969,4.60037,2472.182,2017-11-25T14:45:05Z
2017-11-25T12:46:39Z,42.805,6.029,13.2985,4.60011,2472.205,2017-11-25T14:48:07Z
2017-11-25T12:49:42Z,42.805,6.029,13.2977,4.60007,2472.182,2017-11-25T14:51:10Z
2017-11-25T12:52:45Z,42.805,6.029,13.2982,4.60047,2472.182,2017-11-25T14:54:13Z
2017-11-25T12:55:48Z,42.805,6.029,13.2963,4.60019,2472.168,2017-11-25T14:57:16Z
2017-11-25T12:58:51Z,42.805,6.029,13.2990,4.60031,2472.205,2017-11-25T15:00:19Z
2017-11-25T13:01:54Z,42.805,6.029,13.2993,4.60068,2472.168,2017-11-25T15:03:22Z
2017-11-25T13:04:57Z,42.805,6.029,13.2959,4.60035,2472.205,2017-11-25T15:06:25Z
2017-11-25T13:08:00Z,42.805,6.029,13.2991,4.60023,2472.168,2017-11-25T15:09:28Z
2017-11-25T13:11:02Z,42.805,6.029,13.2985,4.60059,2472.19,2017-11-25T15:12:31Z
2017-11-25T13:14:05Z,42.805,6.029,13.2964,4.60029,2472.16,2017-11-25T15:15:34Z
2017-11-25T13:17:08Z,42.805,6.029,13.2954,4.60024,2472.182,2017-11-25T15:18:36Z
2017-11-25T13:20:11Z,42.805,6.029,13.2953,4.60015,2472.168,2017-11-25T15:21:39Z
2017-11-25T13:23:14Z,42.805,6.029,13.2959,4.60010,2472.19,2017-11-25T15:24:42Z
2017-11-25T13:26:17Z,42.805,6.029,13.2959,4.59998,2472.168,2017-11-25T15:27:45Z
2017-11-25T13:29:20Z,42.805,6.029,13.2954,4.60006,2472.16,2017-11-25T15:30:48Z
2017-11-25T13:32:23Z,42.805,6.029,13.2957,4.60012,2472.16,2017-11-25T15:33:51Z
2017-11-25T13:35:26Z,42.805,6.029,13.2955,4.60013,2472.213,2017-11-25T15:36:54Z
2017-11-25T13:38:29Z,42.805,6.029,13.2958,4.60015,2472.16,2017-11-25T15:39:57Z
2017-11-25T13:41:31Z,42.805,6.029,13.2960,4.60041,2472.182,2017-11-25T15:43:00Z
2017-11-25T13:44:34Z,42.805,6.029,13.2959,4.60035,2472.168,2017-11-25T15:46:03Z
2017-11-25T13:47:37Z,42.805,6.029,13.2968,4.60034,2472.145,2017-11-25T15:49:05Z
2017-11-25T13:50:40Z,42.805,6.029,13.2981,4.60046,2472.182,2017-11-25T15:52:08Z
2017-11-25T13:53:43Z,42.805,6.029,13.2973,4.60023,2472.205,2017-11-25T15:55:11Z
2017-11-25T13:56:46Z,42.805,6.029,13.2975,4.60034,2472.16,2017-11-25T15:58:14Z
2017-11-25T13:59:49Z,42.805,6.029,13.2961,4.60029,2472.137,2017-11-25T16:01:17Z
2017-11-25T14:02:52Z,42.805,6.029,13.2967,4.60040,2472.182,2017-11-25T16:04:20Z
2017-11-25T14:05:55Z,42.805,6.029,13.2950,4.60037,2472.145,2017-11-25T16:07:23Z
2017-11-25T14:08:57Z,42.805,6.029,13.2957,4.59986,2472.137,2017-11-25T16:10:26Z
2017-11-25T14:12:00Z,42.805,6.029,13.2951,4.59995,2472.182,2017-11-25T16:13:29Z
2017-11-25T14:15:03Z,42.805,6.029,13.2953,4.60002,2472.145,2017-11-25T16:16:31Z
2017-11-25T14:18:06Z,42.805,6.029,13.2955,4.60001,2472.182,2017-11-25T16:19:34Z
2017-11-25T14:21:09Z,42.805,6.029,13.2959,4.59991,2472.16,2017-11-25T16:22:37Z
2017-11-25T14:24:12Z,42.805,6.029,13.2946,4.59985,2472.182,2017-11-25T16:25:40Z
2017-11-25T14:27:15Z,42.805,6.029,13.2947,4.59989,2472.16,2017-11-25T16:28:43Z
2017-11-25T14:30:18Z,42.805,6.029,13.2954,4.59995,2472.16,2017-11-25T16:31:46Z
2017-11-25T14:33:21Z,42.805,6.029,13.2956,4.60006,2472.16,2017-11-25T16:34:49Z
2017-11-25T14:36:24Z,42.805,6.029,13.2958,4.60024,2472.16,2017-11-25T16:37:52Z
2017-11-25T14:39:26Z,42.805,6.029,13.2964,4.60012,2472.137,2017-11-25T16:40:55Z
2017-11-25T14:42:29Z,42.805,6.029,13.2952,4.59994,2472.182,2017-11-25T16:43:58Z
2017-11-25T14:45:32Z,42.805,6.029,13.2958,4.59998,2472.145,2017-11-25T16:47:00Z
2017-11-25T14:48:35Z,42.805,6.029,13.2945,4.60000,2472.168,2017-11-25T16:50:03Z
2017-11-25T14:51:38Z,42.805,6.029,13.2961,4.60001,2472.182,2017-11-25T16:53:06Z
2017-11-25T14:54:41Z,42.805,6.029,13.2972,4.60009,2472.16,2017-11-25T16:56:09Z
2017-11-25T14:57:44Z,42.805,6.029,13.2952,4.60018,2472.137,2017-11-25T16:59:12Z